| time (UTC) | temp F | wind direction | speed MPH | gust MPH | rain 1hr in | rain 24hr in | rain mn in | humidity % | barometer mb |
| 20260507142515 | 57 | 305 | 2.0 | 4.0 | 0.00 | 0.06 | 0.06 | 57 | 1013.5 |
| 20260507142013 | 56 | 92 | 2.0 | 4.0 | 0.00 | 0.06 | 0.06 | 58 | 1013.5 |
| 20260507141509 | 56 | 329 | 3.0 | 3.0 | 0.00 | 0.06 | 0.06 | 58 | 1013.5 |
| 20260507141007 | 56 | 40 | 0.0 | 5.0 | 0.00 | 0.06 | 0.06 | 60 | 1013.3 |
| 20260507140503 | 55 | 134 | 1.0 | 4.0 | 0.00 | 0.06 | 0.06 | 58 | 1013.5 |
| 20260507140000 | 55 | 15 | 2.0 | 4.0 | 0.00 | 0.06 | 0.06 | 57 | 1013.6 |
| 20260507135457 | 55 | 35 | 2.0 | 3.0 | 0.00 | 0.06 | 0.06 | 57 | 1013.6 |
| 20260507134954 | 55 | 342 | 4.0 | 6.0 | 0.00 | 0.06 | 0.06 | 58 | 1013.6 |
| 20260507134450 | 55 | 220 | 4.0 | 4.0 | 0.00 | 0.06 | 0.06 | 60 | 1013.5 |
| 20260507133946 | 55 | 256 | 3.0 | 7.0 | 0.00 | 0.06 | 0.06 | 60 | 1013.7 |
| 20260507133442 | 55 | 12 | 5.0 | 5.0 | 0.00 | 0.06 | 0.06 | 60 | 1013.7 |
| 20260507132941 | 55 | 348 | 3.0 | 6.0 | 0.00 | 0.06 | 0.06 | 59 | 1013.5 |
| 20260507132437 | 55 | 57 | 2.0 | 9.0 | 0.00 | 0.06 | 0.06 | 62 | 1013.6 |
| 20260507131933 | 54 | 3 | 0.0 | 2.0 | 0.00 | 0.06 | 0.06 | 65 | 1013.5 |
| 20260507131431 | 54 | 305 | 2.0 | 5.0 | 0.00 | 0.06 | 0.06 | 66 | 1013.6 |
| 20260507130928 | 55 | 341 | 0.0 | 4.0 | 0.00 | 0.06 | 0.06 | 66 | 1013.8 |
| 20260507130425 | 55 | 71 | 4.0 | 5.0 | 0.00 | 0.06 | 0.06 | 67 | 1013.6 |
| 20260507125923 | 55 | 151 | 2.0 | 3.0 | 0.00 | 0.06 | 0.06 | 71 | 1013.5 |
| 20260507125421 | 55 | 344 | 3.0 | 5.0 | 0.00 | 0.06 | 0.06 | 70 | 1013.5 |
| 20260507124918 | 55 | 137 | 1.0 | 5.0 | 0.00 | 0.06 | 0.06 | 72 | 1013.8 |
| 20260507124414 | 54 | 316 | 2.0 | 7.0 | 0.00 | 0.06 | 0.06 | 73 | 1013.4 |
| 20260507123913 | 54 | 64 | 1.0 | 7.0 | 0.00 | 0.06 | 0.06 | 74 | 1013.5 |
| 20260507123410 | 54 | 22 | 1.0 | 5.0 | 0.00 | 0.06 | 0.06 | 76 | 1013.5 |
| 20260507122906 | 54 | 50 | 2.0 | 4.0 | 0.00 | 0.06 | 0.06 | 79 | 1013.7 |
| 20260507122401 | 54 | 269 | 0.0 | 4.0 | 0.00 | 0.06 | 0.06 | 79 | 1013.5 |
| 20260507121858 | 54 | 89 | 0.0 | 3.0 | 0.00 | 0.06 | 0.06 | 80 | 1013.3 |
| 20260507121353 | 54 | 30 | 0.0 | 2.0 | 0.00 | 0.06 | 0.06 | 80 | 1013.3 |
| 20260507120850 | 53 | 28 | 0.0 | 3.0 | 0.00 | 0.06 | 0.06 | 80 | 1013.3 |
| 20260507120346 | 53 | 273 | 0.0 | 2.0 | 0.00 | 0.06 | 0.06 | 80 | 1013.2 |
| 20260507115842 | 53 | 60 | 0.0 | 3.0 | 0.00 | 0.06 | 0.06 | 81 | 1013.2 |
| 20260507115338 | 53 | 108 | 0.0 | 1.0 | 0.00 | 0.06 | 0.06 | 82 | 1013.2 |
| 20260507114834 | 53 | 145 | 0.0 | 0.0 | 0.00 | 0.06 | 0.06 | 81 | 1013.1 |
| 20260507114331 | 53 | 47 | 0.0 | 2.0 | 0.00 | 0.06 | 0.06 | 81 | 1013.4 |
| 20260507113829 | 53 | 89 | 0.0 | 2.0 | 0.00 | 0.06 | 0.06 | 82 | 1013.4 |
| 20260507113326 | 53 | 352 | 0.0 | 2.0 | 0.00 | 0.06 | 0.06 | 82 | 1013.5 |
| 20260507112823 | 53 | 67 | 0.0 | 3.0 | 0.00 | 0.06 | 0.06 | 82 | 1013.3 |
| 20260507112320 | 53 | 32 | 1.0 | 2.0 | 0.00 | 0.06 | 0.06 | 83 | 1013.2 |
| 20260507111818 | 52 | 83 | 0.0 | 2.0 | 0.00 | 0.06 | 0.06 | 84 | 1013.0 |
| 20260507111314 | 52 | 67 | 2.0 | 3.0 | 0.00 | 0.06 | 0.06 | 85 | 1012.9 |
| 20260507110810 | 52 | 119 | 1.0 | 2.0 | 0.00 | 0.06 | 0.06 | 87 | 1012.7 |
| 20260507110307 | 52 | 72 | 0.0 | 1.0 | 0.00 | 0.06 | 0.06 | 89 | 1012.7 |
| 20260507105804 | 51 | 76 | 0.0 | 1.0 | 0.00 | 0.06 | 0.06 | 89 | 1012.9 |
| 20260507105300 | 51 | 126 | 0.0 | 0.0 | 0.00 | 0.06 | 0.06 | 91 | 1012.9 |
| 20260507104757 | 51 | 109 | 0.0 | 1.0 | 0.00 | 0.06 | 0.06 | 91 | 1012.4 |
| 20260507104253 | 51 | 133 | 0.0 | 1.0 | 0.00 | 0.06 | 0.06 | 91 | 1012.5 |
| 20260507103750 | 51 | 129 | 1.0 | 1.0 | 0.00 | 0.06 | 0.06 | 91 | 1012.5 |
| 20260507103246 | 51 | 49 | 0.0 | 1.0 | 0.00 | 0.06 | 0.06 | 91 | 1012.3 |
| 20260507102743 | 51 | 168 | 0.0 | 0.0 | 0.00 | 0.06 | 0.06 | 91 | 1012.3 |
| 20260507102240 | 51 | 124 | 0.0 | 0.0 | 0.00 | 0.06 | 0.06 | 90 | 1012.3 |
| 20260507101736 | 51 | 145 | 0.0 | 1.0 | 0.00 | 0.06 | 0.06 | 90 | 1012.2 |
| 20260507101231 | 51 | 164 | 0.0 | 2.0 | 0.00 | 0.06 | 0.06 | 89 | 1012.3 |
| 20260507100728 | 51 | 93 | 0.0 | 1.0 | 0.00 | 0.06 | 0.06 | 89 | 1012.3 |
| 20260507100227 | 51 | 132 | 1.0 | 2.0 | 0.02 | 0.06 | 0.06 | 89 | 1012.2 |
| 20260507095724 | 51 | 130 | 0.0 | 1.0 | 0.02 | 0.06 | 0.06 | 89 | 1012.3 |
| 20260507095220 | 51 | 41 | 1.0 | 1.0 | 0.00 | 0.06 | 0.06 | 88 | 1012.1 |
| 20260507094717 | 51 | 39 | 0.0 | 2.0 | 0.00 | 0.06 | 0.06 | 87 | 1012.1 |
| 20260507094215 | 51 | 110 | 0.0 | 1.0 | 0.00 | 0.06 | 0.06 | 87 | 1012.1 |
| 20260507093711 | 51 | 64 | 0.0 | 2.0 | 0.00 | 0.06 | 0.06 | 87 | 1012.0 |
| 20260507093210 | 51 | 135 | 0.0 | 1.0 | 0.00 | 0.06 | 0.06 | 86 | 1012.2 |
| 20260507092707 | 51 | 7 | 1.0 | 2.0 | 0.00 | 0.06 | 0.06 | 87 | 1012.1 |
| 20260507092203 | 51 | 334 | 2.0 | 3.0 | 0.00 | 0.06 | 0.06 | 86 | 1012.0 |
| 20260507091659 | 51 | 147 | 0.0 | 3.0 | 0.00 | 0.06 | 0.06 | 86 | 1012.1 |
| 20260507091156 | 51 | 11 | 0.0 | 3.0 | 0.00 | 0.06 | 0.06 | 86 | 1011.9 |
| 20260507090651 | 51 | 18 | 1.0 | 3.0 | 0.00 | 0.06 | 0.06 | 85 | 1012.1 |
| 20260507090149 | 51 | 41 | 0.0 | 3.0 | 0.00 | 0.06 | 0.06 | 85 | 1011.9 |
| 20260507085646 | 51 | 135 | 0.0 | 2.0 | 0.00 | 0.06 | 0.06 | 85 | 1011.9 |
| 20260507085142 | 51 | 144 | 0.0 | 2.0 | 0.00 | 0.06 | 0.06 | 85 | 1011.7 |
| 20260507084640 | 51 | 20 | 2.0 | 2.0 | 0.00 | 0.06 | 0.06 | 85 | 1012.0 |
| 20260507084136 | 51 | 119 | 0.0 | 3.0 | 0.00 | 0.06 | 0.06 | 85 | 1011.7 |
| 20260507083633 | 51 | 102 | 0.0 | 4.0 | 0.00 | 0.06 | 0.06 | 85 | 1011.6 |
| 20260507083130 | 51 | 14 | 1.0 | 5.0 | 0.00 | 0.06 | 0.06 | 85 | 1011.6 |
| 20260507082625 | 51 | 11 | 2.0 | 5.0 | 0.00 | 0.06 | 0.06 | 86 | 1011.6 |
| 20260507082122 | 51 | 74 | 0.0 | 3.0 | 0.00 | 0.06 | 0.06 | 85 | 1011.8 |
| 20260507081619 | 51 | 83 | 2.0 | 3.0 | 0.00 | 0.06 | 0.06 | 86 | 1011.8 |
| 20260507081115 | 51 | 335 | 2.0 | 4.0 | 0.00 | 0.06 | 0.06 | 85 | 1011.8 |
| 20260507080612 | 52 | 40 | 0.0 | 3.0 | 0.00 | 0.06 | 0.06 | 86 | 1011.7 |
| 20260507080108 | 52 | 329 | 0.0 | 3.0 | 0.00 | 0.06 | 0.06 | 85 | 1011.9 |
| 20260507075603 | 52 | 346 | 2.0 | 4.0 | 0.00 | 0.06 | 0.06 | 86 | 1011.9 |
| 20260507075100 | 52 | 344 | 5.0 | 6.0 | 0.00 | 0.06 | 0.06 | 86 | 1011.8 |
| 20260507074557 | 52 | 0 | 2.0 | 6.0 | 0.00 | 0.06 | 0.06 | 87 | 1011.6 |
| 20260507074055 | 52 | 7 | 2.0 | 3.0 | 0.00 | 0.06 | 0.06 | 87 | 1011.8 |
| 20260507073550 | 52 | 54 | 3.0 | 10.0 | 0.00 | 0.06 | 0.06 | 86 | 1011.7 |
| 20260507073047 | 52 | 314 | 0.0 | 4.0 | 0.00 | 0.06 | 0.06 | 86 | 1012.0 |
| 20260507072545 | 52 | 314 | 3.0 | 5.0 | 0.00 | 0.06 | 0.06 | 87 | 1012.0 |
| 20260507072042 | 52 | 8 | 3.0 | 5.0 | 0.00 | 0.06 | 0.06 | 86 | 1011.9 |
| 20260507071539 | 52 | 316 | 0.0 | 4.0 | 0.00 | 0.06 | 0.06 | 87 | 1012.2 |
| 20260507071036 | 52 | 196 | 1.0 | 5.0 | 0.00 | 0.06 | 0.06 | 87 | 1012.3 |
| 20260507070533 | 52 | 118 | 1.0 | 7.0 | 0.00 | 0.06 | 0.06 | 87 | 1012.2 |
| 20260507070030 | 52 | 351 | 4.0 | 6.0 | 0.00 | 0.06 | 0.06 | 87 | 1012.1 |
| 20260507065526 | 53 | 69 | 2.0 | 6.0 | 0.00 | 0.06 | 0.06 | 90 | 1012.2 |
| 20260507065023 | 53 | 101 | 1.0 | 4.0 | 0.00 | 0.06 | 0.06 | 90 | 1011.7 |
| 20260507064521 | 53 | 21 | 1.0 | 4.0 | 0.00 | 0.06 | 0.06 | 90 | 1011.8 |
| 20260507064020 | 53 | 17 | 0.0 | 5.0 | 0.00 | 0.06 | 0.06 | 90 | 1011.7 |
| 20260507063516 | 53 | 302 | 2.0 | 4.0 | 0.00 | 0.06 | 0.06 | 91 | 1011.4 |
| 20260507063014 | 53 | 191 | 0.0 | 6.0 | 0.02 | 0.06 | 0.06 | 91 | 1011.3 |
| 20260507062510 | 53 | 51 | 1.0 | 3.0 | 0.02 | 0.06 | 0.06 | 91 | 1011.3 |
| 20260507062008 | 53 | 290 | 0.0 | 4.0 | 0.00 | 0.06 | 0.06 | 91 | 1011.7 |
| 20260507061505 | 53 | 4 | 2.0 | 4.0 | 0.02 | 0.06 | 0.06 | 90 | 1011.6 |
| 20260507061003 | 54 | 29 | 2.0 | 5.0 | 0.02 | 0.06 | 0.06 | 89 | 1011.6 |
| 20260507060501 | 54 | 294 | 0.0 | 3.0 | 0.02 | 0.05 | 0.05 | 89 | 1012.0 |
| 20260507055956 | 54 | 36 | 3.0 | 5.0 | 0.12 | 0.05 | 0.05 | 88 | 1012.1 |
| 20260507055452 | 55 | 290 | 2.0 | 5.0 | 0.24 | 0.05 | 0.05 | 86 | 1011.7 |
| 20260507054949 | 56 | 175 | 2.0 | 5.0 | 0.07 | 0.01 | 0.01 | 84 | 1012.0 |
| 20260507054445 | 57 | 345 | 3.0 | 10.0 | 0.00 | 0.00 | 0.00 | 81 | 1012.0 |
| 20260507053942 | 57 | 347 | 2.0 | 3.0 | 0.00 | 0.00 | 0.00 | 81 | 1011.5 |
| 20260507053440 | 58 | 284 | 1.0 | 4.0 | 0.00 | 0.00 | 0.00 | 80 | 1011.0 |
| 20260507052938 | 58 | 104 | 2.0 | 3.0 | 0.00 | 0.00 | 0.00 | 80 | 1011.1 |
| 20260507052436 | 58 | 14 | 1.0 | 2.0 | 0.00 | 0.00 | 0.00 | 80 | 1011.5 |
| 20260507051932 | 58 | 354 | 0.0 | 3.0 | 0.00 | 0.00 | 0.00 | 79 | 1011.4 |
| 20260507051430 | 58 | 349 | 3.0 | 4.0 | 0.00 | 0.00 | 0.00 | 78 | 1011.0 |
| 20260507050927 | 58 | 307 | 0.0 | 9.0 | 0.00 | 0.00 | 0.00 | 77 | 1011.2 |
| 20260507050423 | 58 | 343 | 2.0 | 5.0 | 0.00 | 0.00 | 0.00 | 77 | 1011.2 |
| 20260507045921 | 58 | 310 | 2.0 | 5.0 | 0.00 | 0.00 | 0.00 | 78 | 1010.8 |
| 20260507045417 | 58 | 1 | 1.0 | 3.0 | 0.00 | 0.00 | 0.00 | 79 | 1010.4 |
| 20260507044914 | 58 | 345 | 2.0 | 5.0 | 0.00 | 0.00 | 0.00 | 78 | 1010.3 |
| 20260507044411 | 58 | 330 | 2.0 | 5.0 | 0.00 | 0.00 | 0.00 | 78 | 1010.4 |
| 20260507043907 | 59 | 350 | 3.0 | 4.0 | 0.00 | 0.00 | 0.00 | 80 | 1010.4 |
| 20260507043403 | 59 | 315 | 2.0 | 7.0 | 0.00 | 0.00 | 0.00 | 80 | 1010.8 |
| 20260507042900 | 59 | 65 | 3.0 | 6.0 | 0.00 | 0.00 | 0.00 | 82 | 1010.8 |
| 20260507042356 | 59 | 343 | 3.0 | 10.0 | 0.00 | 0.00 | 0.00 | 81 | 1010.7 |
| 20260507041852 | 60 | 89 | 0.0 | 5.0 | 0.00 | 0.00 | 0.00 | 83 | 1010.2 |
| 20260507041349 | 61 | 256 | 0.0 | 6.0 | 0.00 | 0.00 | 0.00 | 81 | 1010.6 |
| 20260507040846 | 63 | 310 | 2.0 | 6.0 | 0.00 | 0.00 | 0.00 | 80 | 1010.8 |
| 20260507040342 | 64 | 12 | 2.0 | 4.0 | 0.00 | 0.00 | 0.00 | 85 | 1010.3 |
| 20260507035838 | 64 | 126 | 0.0 | 2.0 | 0.00 | 0.00 | 0.00 | 84 | 1010.3 |
| 20260507035334 | 65 | 352 | 0.0 | 3.0 | 0.00 | 0.00 | 0.00 | 83 | 1010.1 |
| 20260507034832 | 65 | 301 | 2.0 | 3.0 | 0.00 | 0.00 | 0.00 | 82 | 1010.2 |
| 20260507034328 | 65 | 295 | 2.0 | 6.0 | 0.00 | 0.00 | 0.00 | 82 | 1010.3 |
| 20260507033826 | 66 | 308 | 0.0 | 4.0 | 0.00 | 0.00 | 0.00 | 82 | 1010.1 |
| 20260507033324 | 66 | 142 | 3.0 | 3.0 | 0.00 | 0.00 | 0.00 | 83 | 1010.3 |
| 20260507032815 | 66 | 324 | 1.0 | 3.0 | 0.00 | 0.00 | 0.00 | 82 | 1010.2 |
| 20260507032311 | 66 | 194 | 1.0 | 3.0 | 0.00 | 0.00 | 0.00 | 81 | 1010.0 |
| 20260507031808 | 66 | 233 | 0.0 | 1.0 | 0.00 | 0.00 | 0.00 | 81 | 1010.0 |
| 20260507031305 | 66 | 253 | 2.0 | 4.0 | 0.00 | 0.00 | 0.00 | 80 | 1009.9 |
| 20260507030801 | 66 | 244 | 2.0 | 3.0 | 0.00 | 0.00 | 0.00 | 80 | 1010.0 |
| 20260507030259 | 66 | 230 | 0.0 | 2.0 | 0.00 | 0.00 | 0.00 | 80 | 1009.8 |
| 20260507025756 | 66 | 140 | 2.0 | 2.0 | 0.00 | 0.00 | 0.00 | 80 | 1010.0 |
| 20260507025253 | 66 | 268 | 1.0 | 3.0 | 0.00 | 0.00 | 0.00 | 80 | 1009.9 |
| 20260507024751 | 66 | 255 | 1.0 | 2.0 | 0.00 | 0.00 | 0.00 | 80 | 1010.1 |
| 20260507024248 | 66 | 231 | 1.0 | 3.0 | 0.00 | 0.00 | 0.00 | 80 | 1010.1 |
| 20260507023743 | 67 | 246 | 2.0 | 2.0 | 0.00 | 0.00 | 0.00 | 80 | 1009.9 |
| 20260507023241 | 67 | 239 | 0.0 | 3.0 | 0.00 | 0.00 | 0.00 | 80 | 1009.7 |
| 20260507022738 | 67 | 229 | 0.0 | 1.0 | 0.00 | 0.00 | 0.00 | 80 | 1009.8 |
| 20260507022234 | 67 | 229 | 0.0 | 3.0 | 0.00 | 0.00 | 0.00 | 80 | 1009.9 |
| 20260507021730 | 67 | 167 | 1.0 | 2.0 | 0.00 | 0.00 | 0.00 | 80 | 1010.0 |
| 20260507021226 | 67 | 267 | 2.0 | 2.0 | 0.00 | 0.00 | 0.00 | 80 | 1010.1 |
| 20260507020724 | 66 | 188 | 0.0 | 3.0 | 0.00 | 0.00 | 0.00 | 80 | 1010.1 |
| 20260507020220 | 66 | 218 | 1.0 | 2.0 | 0.00 | 0.00 | 0.00 | 80 | 1010.1 |
| 20260507015718 | 66 | 224 | 0.0 | 2.0 | 0.00 | 0.00 | 0.00 | 80 | 1010.4 |
| 20260507015215 | 66 | 157 | 0.0 | 1.0 | 0.00 | 0.00 | 0.00 | 79 | 1010.1 |
| 20260507014712 | 67 | 230 | 2.0 | 2.0 | 0.00 | 0.00 | 0.00 | 79 | 1010.2 |
| 20260507014208 | 67 | 118 | 0.0 | 2.0 | 0.00 | 0.00 | 0.00 | 79 | 1010.0 |
| 20260507013705 | 67 | 269 | 0.0 | 2.0 | 0.00 | 0.00 | 0.00 | 79 | 1010.1 |
| 20260507013203 | 67 | 136 | 1.0 | 2.0 | 0.00 | 0.00 | 0.00 | 79 | 1009.9 |
| 20260507012700 | 67 | 235 | 2.0 | 2.0 | 0.00 | 0.00 | 0.00 | 78 | 1010.0 |
| 20260507012155 | 67 | 215 | 0.0 | 1.0 | 0.00 | 0.00 | 0.00 | 78 | 1010.1 |
| 20260507011653 | 67 | 223 | 0.0 | 2.0 | 0.00 | 0.00 | 0.00 | 77 | 1010.1 |
| 20260507011149 | 67 | 156 | 0.0 | 2.0 | 0.00 | 0.00 | 0.00 | 77 | 1009.8 |
| 20260507010643 | 67 | 210 | 0.0 | 2.0 | 0.00 | 0.00 | 0.00 | 77 | 1010.2 |
| 20260507010140 | 68 | 219 | 1.0 | 1.0 | 0.00 | 0.00 | 0.00 | 77 | 1010.1 |
| 20260507005638 | 68 | 249 | 0.0 | 3.0 | 0.00 | 0.00 | 0.00 | 77 | 1010.2 |
| 20260507005133 | 68 | 220 | 1.0 | 2.0 | 0.00 | 0.00 | 0.00 | 77 | 1010.3 |
| 20260507004630 | 67 | 230 | 2.0 | 3.0 | 0.00 | 0.00 | 0.00 | 77 | 1010.0 |
| 20260507004128 | 68 | 205 | 1.0 | 2.0 | 0.00 | 0.00 | 0.00 | 76 | 1009.8 |
| 20260507003624 | 68 | 168 | 1.0 | 1.0 | 0.00 | 0.00 | 0.00 | 76 | 1009.5 |
| 20260507003120 | 68 | 121 | 0.0 | 1.0 | 0.00 | 0.00 | 0.00 | 76 | 1009.4 |
| 20260507002616 | 68 | 229 | 0.0 | 1.0 | 0.00 | 0.00 | 0.00 | 75 | 1009.5 |
| 20260507002112 | 68 | 269 | 0.0 | 4.0 | 0.00 | 0.00 | 0.00 | 75 | 1009.4 |
| 20260507001609 | 68 | 271 | 2.0 | 3.0 | 0.00 | 0.00 | 0.00 | 74 | 1009.5 |
| 20260507001106 | 68 | 224 | 0.0 | 2.0 | 0.00 | 0.00 | 0.00 | 74 | 1009.4 |
| 20260507000602 | 69 | 217 | 0.0 | 2.0 | 0.00 | 0.00 | 0.00 | 74 | 1009.4 |
| 20260507000058 | 69 | 195 | 1.0 | 5.0 | 0.00 | 0.00 | 0.00 | 73 | 1009.4 |
| 20260506235555 | 69 | 159 | 0.0 | 3.0 | 0.00 | 0.00 | 0.00 | 73 | 1009.5 |
| 20260506235050 | 69 | 215 | 2.0 | 3.0 | 0.00 | 0.00 | 0.00 | 73 | 1009.3 |
| 20260506234548 | 69 | 254 | 1.0 | 2.0 | 0.00 | 0.00 | 0.00 | 73 | 1009.2 |
| 20260506234045 | 69 | 217 | 0.0 | 4.0 | 0.00 | 0.00 | 0.00 | 72 | 1009.4 |
| 20260506233542 | 69 | 268 | 1.0 | 5.0 | 0.00 | 0.00 | 0.00 | 72 | 1009.1 |
| 20260506233039 | 70 | 209 | 0.0 | 1.0 | 0.00 | 0.00 | 0.00 | 72 | 1009.2 |
| 20260506232535 | 70 | 158 | 1.0 | 2.0 | 0.00 | 0.00 | 0.00 | 71 | 1009.3 |
| 20260506232030 | 70 | 168 | 1.0 | 5.0 | 0.00 | 0.00 | 0.00 | 71 | 1009.2 |
| 20260506231528 | 70 | 257 | 2.0 | 2.0 | 0.00 | 0.00 | 0.00 | 71 | 1009.1 |
| 20260506231026 | 70 | 219 | 2.0 | 3.0 | 0.00 | 0.00 | 0.00 | 70 | 1009.1 |
| 20260506230522 | 70 | 211 | 0.0 | 2.0 | 0.00 | 0.00 | 0.00 | 70 | 1009.3 |
| 20260506230020 | 70 | 242 | 2.0 | 6.0 | 0.00 | 0.00 | 0.00 | 69 | 1009.4 |
| 20260506225516 | 71 | 182 | 2.0 | 5.0 | 0.00 | 0.00 | 0.00 | 69 | 1009.2 |
| 20260506225012 | 70 | 226 | 2.0 | 3.0 | 0.00 | 0.00 | 0.00 | 70 | 1009.3 |
| 20260506224509 | 70 | 264 | 4.0 | 5.0 | 0.00 | 0.00 | 0.00 | 70 | 1009.3 |
| 20260506224006 | 70 | 275 | 4.0 | 4.0 | 0.00 | 0.00 | 0.00 | 70 | 1009.3 |
| 20260506223501 | 70 | 206 | 0.0 | 3.0 | 0.00 | 0.00 | 0.00 | 70 | 1009.1 |
| 20260506222959 | 70 | 247 | 1.0 | 2.0 | 0.00 | 0.00 | 0.00 | 71 | 1009.0 |
| 20260506222455 | 70 | 320 | 0.0 | 3.0 | 0.00 | 0.00 | 0.00 | 71 | 1009.1 |
| 20260506221952 | 70 | 218 | 2.0 | 3.0 | 0.00 | 0.00 | 0.00 | 70 | 1009.1 |
| 20260506221449 | 70 | 230 | 0.0 | 5.0 | 0.00 | 0.00 | 0.00 | 70 | 1009.0 |
| 20260506220947 | 70 | 211 | 3.0 | 4.0 | 0.00 | 0.00 | 0.00 | 70 | 1009.1 |
| 20260506220442 | 70 | 191 | 1.0 | 3.0 | 0.00 | 0.00 | 0.00 | 69 | 1009.2 |
| 20260506215939 | 70 | 199 | 0.0 | 3.0 | 0.00 | 0.00 | 0.00 | 69 | 1009.0 |
| 20260506215436 | 71 | 238 | 2.0 | 4.0 | 0.00 | 0.00 | 0.00 | 69 | 1008.9 |
| 20260506214931 | 72 | 259 | 2.0 | 4.0 | 0.00 | 0.00 | 0.00 | 67 | 1009.2 |
| 20260506214428 | 73 | 177 | 4.0 | 5.0 | 0.00 | 0.00 | 0.00 | 64 | 1009.1 |
| 20260506213926 | 73 | 275 | 4.0 | 6.0 | 0.00 | 0.00 | 0.00 | 65 | 1009.0 |
| 20260506213424 | 74 | 236 | 4.0 | 6.0 | 0.00 | 0.00 | 0.00 | 62 | 1008.9 |
| 20260506212921 | 75 | 245 | 1.0 | 5.0 | 0.00 | 0.00 | 0.00 | 62 | 1008.9 |
| 20260506212416 | 74 | 246 | 2.0 | 4.0 | 0.00 | 0.00 | 0.00 | 63 | 1008.9 |
| 20260506211912 | 72 | 319 | 3.0 | 5.0 | 0.00 | 0.00 | 0.00 | 66 | 1008.8 |
| 20260506211408 | 70 | 293 | 6.0 | 8.0 | 0.00 | 0.00 | 0.00 | 69 | 1008.9 |
| 20260506210905 | 70 | 246 | 2.0 | 5.0 | 0.00 | 0.00 | 0.00 | 70 | 1008.9 |
| 20260506210402 | 70 | 278 | 7.0 | 12.0 | 0.00 | 0.00 | 0.00 | 69 | 1008.8 |
| 20260506205859 | 71 | 275 | 2.0 | 5.0 | 0.00 | 0.00 | 0.00 | 67 | 1008.9 |
| 20260506205355 | 72 | 249 | 5.0 | 6.0 | 0.00 | 0.00 | 0.00 | 66 | 1008.7 |
| 20260506204851 | 71 | 260 | 5.0 | 6.0 | 0.00 | 0.00 | 0.00 | 67 | 1008.8 |
| 20260506204349 | 71 | 259 | 6.0 | 8.0 | 0.00 | 0.00 | 0.00 | 66 | 1008.6 |
| 20260506203846 | 72 | 290 | 3.0 | 5.0 | 0.00 | 0.00 | 0.00 | 66 | 1008.6 |
| 20260506203343 | 71 | 208 | 4.0 | 5.0 | 0.00 | 0.00 | 0.00 | 68 | 1008.6 |
| 20260506202840 | 69 | 254 | 2.0 | 6.0 | 0.00 | 0.00 | 0.00 | 71 | 1008.6 |
| 20260506202337 | 69 | 211 | 2.0 | 6.0 | 0.00 | 0.00 | 0.00 | 71 | 1008.7 |
| 20260506201834 | 68 | 213 | 3.0 | 9.0 | 0.00 | 0.00 | 0.00 | 71 | 1008.6 |
| 20260506201331 | 68 | 284 | 4.0 | 10.0 | 0.00 | 0.00 | 0.00 | 71 | 1008.7 |
| 20260506200828 | 68 | 245 | 5.0 | 6.0 | 0.00 | 0.00 | 0.00 | 72 | 1008.7 |
| 20260506200324 | 68 | 262 | 3.0 | 8.0 | 0.00 | 0.00 | 0.00 | 72 | 1008.8 |
| 20260506195820 | 68 | 228 | 2.0 | 4.0 | 0.00 | 0.00 | 0.00 | 73 | 1008.7 |
| 20260506195318 | 68 | 262 | 3.0 | 9.0 | 0.00 | 0.00 | 0.00 | 72 | 1008.9 |
| 20260506194815 | 68 | 258 | 5.0 | 10.0 | 0.00 | 0.00 | 0.00 | 72 | 1009.0 |
| 20260506194311 | 68 | 249 | 3.0 | 3.0 | 0.00 | 0.00 | 0.00 | 73 | 1009.1 |
| 20260506193809 | 68 | 277 | 4.0 | 4.0 | 0.00 | 0.00 | 0.00 | 73 | 1009.1 |
| 20260506193305 | 67 | 221 | 1.0 | 6.0 | 0.00 | 0.00 | 0.00 | 74 | 1009.3 |
| 20260506192802 | 67 | 237 | 3.0 | 5.0 | 0.00 | 0.00 | 0.00 | 73 | 1009.2 |
| 20260506192259 | 67 | 322 | 4.0 | 5.0 | 0.00 | 0.00 | 0.00 | 74 | 1009.1 |
| 20260506191756 | 67 | 294 | 2.0 | 3.0 | 0.00 | 0.00 | 0.00 | 74 | 1009.3 |
| 20260506191252 | 67 | 231 | 2.0 | 5.0 | 0.00 | 0.00 | 0.00 | 74 | 1009.3 |
| 20260506190749 | 67 | 180 | 4.0 | 13.0 | 0.00 | 0.00 | 0.00 | 74 | 1009.5 |
| 20260506190245 | 67 | 199 | 3.0 | 6.0 | 0.00 | 0.00 | 0.00 | 74 | 1009.5 |
| 20260506185742 | 67 | 235 | 7.0 | 8.0 | 0.00 | 0.00 | 0.00 | 74 | 1009.3 |
| 20260506185239 | 67 | 197 | 1.0 | 5.0 | 0.00 | 0.00 | 0.00 | 75 | 1009.4 |
| 20260506184736 | 67 | 244 | 4.0 | 11.0 | 0.00 | 0.00 | 0.00 | 75 | 1009.4 |
| 20260506184233 | 67 | 228 | 6.0 | 6.0 | 0.00 | 0.00 | 0.00 | 76 | 1009.6 |
| 20260506183730 | 66 | 229 | 3.0 | 3.0 | 0.00 | 0.00 | 0.00 | 77 | 1009.5 |
| 20260506183226 | 66 | 278 | 2.0 | 5.0 | 0.00 | 0.00 | 0.00 | 77 | 1009.5 |
| 20260506182723 | 66 | 187 | 2.0 | 4.0 | 0.00 | 0.00 | 0.00 | 77 | 1009.6 |
| 20260506182220 | 66 | 282 | 3.0 | 3.0 | 0.00 | 0.00 | 0.00 | 78 | 1009.5 |
| 20260506181718 | 66 | 211 | 2.0 | 5.0 | 0.00 | 0.00 | 0.00 | 77 | 1009.7 |
| 20260506181216 | 66 | 249 | 1.0 | 5.0 | 0.00 | 0.00 | 0.00 | 77 | 1009.7 |
| 20260506180713 | 66 | 198 | 3.0 | 6.0 | 0.00 | 0.00 | 0.00 | 76 | 1009.7 |
| 20260506180208 | 67 | 233 | 5.0 | 8.0 | 0.00 | 0.00 | 0.00 | 73 | 1009.8 |
| 20260506175705 | 67 | 248 | 4.0 | 5.0 | 0.00 | 0.00 | 0.00 | 73 | 1009.8 |
| 20260506175202 | 67 | 159 | 3.0 | 5.0 | 0.00 | 0.00 | 0.00 | 72 | 1009.8 |
| 20260506174654 | 67 | 239 | 2.0 | 5.0 | 0.00 | 0.00 | 0.00 | 73 | 1009.7 |
| 20260506174151 | 67 | 355 | 1.0 | 5.0 | 0.00 | 0.00 | 0.00 | 73 | 1009.8 |
| 20260506173649 | 67 | 206 | 3.0 | 5.0 | 0.00 | 0.00 | 0.00 | 73 | 1009.9 |
| 20260506173145 | 67 | 187 | 3.0 | 5.0 | 0.00 | 0.00 | 0.00 | 73 | 1009.8 |
| 20260506172642 | 67 | 236 | 4.0 | 5.0 | 0.00 | 0.00 | 0.00 | 72 | 1009.9 |
| 20260506172139 | 67 | 193 | 3.0 | 7.0 | 0.00 | 0.00 | 0.00 | 72 | 1010.1 |
| 20260506171631 | 66 | 212 | 2.0 | 8.0 | 0.00 | 0.00 | 0.00 | 75 | 1010.0 |
| 20260506171129 | 66 | 222 | 3.0 | 4.0 | 0.00 | 0.00 | 0.00 | 75 | 1010.1 |
| 20260506170626 | 66 | 184 | 0.0 | 4.0 | 0.00 | 0.00 | 0.00 | 75 | 1010.1 |
| 20260506170123 | 67 | 219 | 3.0 | 5.0 | 0.00 | 0.00 | 0.00 | 75 | 1010.2 |
| 20260506165621 | 67 | 218 | 4.0 | 6.0 | 0.00 | 0.00 | 0.00 | 74 | 1010.2 |
| 20260506165117 | 68 | 205 | 3.0 | 11.0 | 0.00 | 0.00 | 0.00 | 74 | 1010.2 |
| 20260506164614 | 68 | 133 | 0.0 | 5.0 | 0.00 | 0.00 | 0.00 | 73 | 1010.3 |
| 20260506164112 | 68 | 252 | 1.0 | 5.0 | 0.00 | 0.00 | 0.00 | 73 | 1010.4 |
| 20260506163607 | 68 | 227 | 3.0 | 4.0 | 0.00 | 0.00 | 0.00 | 74 | 1010.2 |
| 20260506163103 | 68 | 187 | 0.0 | 4.0 | 0.00 | 0.00 | 0.00 | 72 | 1010.3 |
| 20260506162600 | 68 | 236 | 2.0 | 4.0 | 0.00 | 0.00 | 0.00 | 70 | 1010.7 |
| 20260506162057 | 68 | 230 | 3.0 | 5.0 | 0.00 | 0.00 | 0.00 | 70 | 1010.7 |
| 20260506161554 | 68 | 272 | 2.0 | 3.0 | 0.00 | 0.00 | 0.00 | 69 | 1011.0 |
| 20260506161051 | 68 | 227 | 3.0 | 3.0 | 0.00 | 0.00 | 0.00 | 68 | 1011.1 |
| 20260506160548 | 68 | 202 | 0.0 | 5.0 | 0.00 | 0.00 | 0.00 | 68 | 1011.4 |
| 20260506160045 | 68 | 179 | 4.0 | 5.0 | 0.00 | 0.00 | 0.00 | 66 | 1011.4 |
| 20260506155544 | 68 | 175 | 1.0 | 5.0 | 0.00 | 0.00 | 0.00 | 68 | 1011.4 |
| 20260506153715 | 68 | 222 | 2.0 | 4.0 | 0.00 | 0.00 | 0.00 | 66 | 1011.4 |
| 20260506153213 | 69 | 180 | 3.0 | 3.0 | 0.00 | 0.00 | 0.00 | 66 | 1011.2 |
| 20260506152709 | 69 | 275 | 2.0 | 6.0 | 0.00 | 0.00 | 0.00 | 63 | 1011.1 |
| 20260506152207 | 69 | 249 | 7.0 | 8.0 | 0.00 | 0.00 | 0.00 | 62 | 1011.3 |
| 20260506151706 | 69 | 223 | 3.0 | 5.0 | 0.00 | 0.00 | 0.00 | 60 | 1011.2 |
| 20260506151202 | 70 | 225 | 3.0 | 5.0 | 0.00 | 0.00 | 0.00 | 60 | 1011.3 |
| 20260506150658 | 70 | 195 | 3.0 | 8.0 | 0.00 | 0.00 | 0.00 | 58 | 1011.4 |
| 20260506150156 | 71 | 230 | 2.0 | 5.0 | 0.00 | 0.00 | 0.00 | 58 | 1011.1 |
| 20260506145653 | 71 | 248 | 4.0 | 5.0 | 0.00 | 0.00 | 0.00 | 58 | 1011.3 |
| 20260506145149 | 71 | 237 | 4.0 | 5.0 | 0.00 | 0.00 | 0.00 | 58 | 1011.4 |
| 20260506144647 | 70 | 252 | 3.0 | 9.0 | 0.00 | 0.00 | 0.00 | 59 | 1011.4 |
| 20260506144144 | 70 | 229 | 2.0 | 5.0 | 0.00 | 0.00 | 0.00 | 60 | 1011.4 |
| 20260506143641 | 69 | 193 | 3.0 | 5.0 | 0.00 | 0.00 | 0.00 | 60 | 1011.5 |
| 20260506143139 | 69 | 176 | 4.0 | 6.0 | 0.00 | 0.00 | 0.00 | 60 | 1011.5 |